Time,TemperatureF,DewpointF,PressureIn,WindDirection,WindDirectionDegrees,WindSpeedMPH,WindSpeedGustMPH,Humidity,HourlyPrecipIn,Conditions,Clouds,dailyrainin,SolarRadiationWatts/m^2,SoftwareType,DateUTC
2013-07-25 00:03:00,67.9,64.9,29.84,SE,134,0.0,0.0,90,0.00,,,0.00,0,Wunderground v.1.15,2013-07-25 05:03:00,
2013-07-25 00:09:00,67.7,64.7,29.84,SE,134,0.0,1.0,90,0.00,,,0.00,0,Wunderground v.1.15,2013-07-25 05:09:00,
2013-07-25 00:14:00,67.7,64.7,29.84,SE,134,0.0,0.0,90,0.00,,,0.00,0,Wunderground v.1.15,2013-07-25 05:14:00,
2013-07-25 00:20:00,67.6,64.6,29.84,SE,134,0.0,0.0,90,0.00,,,0.00,0,Wunderground v.1.15,2013-07-25 05:20:00,
2013-07-25 00:25:00,67.6,64.6,29.85,SE,134,0.0,0.0,90,0.00,,,0.00,0,Wunderground v.1.15,2013-07-25 05:25:00,
2013-07-25 00:31:00,67.5,64.5,29.85,SE,134,0.0,0.0,90,0.00,,,0.00,0,Wunderground v.1.15,2013-07-25 05:31:00,
2013-07-25 00:37:00,67.4,64.4,29.85,SE,134,0.0,0.0,90,0.00,,,0.00,0,Wunderground v.1.15,2013-07-25 05:37:00,
2013-07-25 00:42:00,67.5,64.5,29.85,SE,134,0.0,0.0,90,0.00,,,0.00,0,Wunderground v.1.15,2013-07-25 05:42:00,
2013-07-25 00:48:00,67.5,64.5,29.85,SE,134,2.0,2.0,90,0.00,,,0.00,0,Wunderground v.1.15,2013-07-25 05:48:00,
2013-07-25 00:53:00,67.5,64.5,29.85,SE,134,2.0,2.0,90,0.00,,,0.00,0,Wunderground v.1.15,2013-07-25 05:53:00,
2013-07-25 00:58:00,67.4,64.4,29.85,SE,134,2.0,2.0,90,0.00,,,0.00,0,Wunderground v.1.15,2013-07-25 05:58:00,
2013-07-25 01:03:00,67.4,64.4,29.85,SE,134,2.0,3.0,90,0.00,,,0.00,0,Wunderground v.1.15,2013-07-25 06:03:00,
2013-07-25 01:08:00,67.3,64.3,29.85,SE,134,1.0,3.0,90,0.00,,,0.00,0,Wunderground v.1.15,2013-07-25 06:08:00,
2013-07-25 01:14:00,67.2,64.2,29.85,SE,134,0.0,2.0,90,0.00,,,0.00,0,Wunderground v.1.15,2013-07-25 06:14:00,
2013-07-25 01:19:00,67.1,64.1,29.85,SE,134,1.0,2.0,90,0.00,,,0.00,0,Wunderground v.1.15,2013-07-25 06:19:00,
2013-07-25 01:24:00,67.1,64.1,29.85,SE,134,2.0,2.0,90,0.00,,,0.00,0,Wunderground v.1.15,2013-07-25 06:24:00,
2013-07-25 01:29:00,67.0,64.0,29.85,SE,134,0.0,2.0,90,0.00,,,0.00,0,Wunderground v.1.15,2013-07-25 06:29:00,
2013-07-25 01:34:00,66.9,63.9,29.85,SE,134,0.0,2.0,90,0.00,,,0.00,0,Wunderground v.1.15,2013-07-25 06:34:00,
2013-07-25 01:39:00,66.9,63.9,29.85,SE,134,0.0,2.0,90,0.00,,,0.00,0,Wunderground v.1.15,2013-07-25 06:39:00,
2013-07-25 01:44:00,66.7,63.7,29.85,SE,134,0.0,0.0,90,0.00,,,0.00,0,Wunderground v.1.15,2013-07-25 06:44:00,
2013-07-25 01:50:00,66.7,63.7,29.84,SE,134,0.0,0.0,90,0.00,,,0.00,0,Wunderground v.1.15,2013-07-25 06:50:00,
2013-07-25 01:55:00,66.6,63.6,29.84,SE,134,0.0,0.0,90,0.00,,,0.00,0,Wunderground v.1.15,2013-07-25 06:55:00,
2013-07-25 02:00:00,66.6,63.6,29.84,SE,134,1.0,1.0,90,0.00,,,0.00,0,Wunderground v.1.15,2013-07-25 07:00:00,
2013-07-25 02:05:00,66.5,63.5,29.84,SE,134,0.0,1.0,90,0.00,,,0.00,0,Wunderground v.1.15,2013-07-25 07:05:00,
2013-07-25 02:10:00,66.3,63.3,29.84,SE,134,0.0,0.0,90,0.00,,,0.00,0,Wunderground v.1.15,2013-07-25 07:10:00,
2013-07-25 02:15:00,66.2,63.2,29.84,SE,134,0.0,0.0,90,0.00,,,0.00,0,Wunderground v.1.15,2013-07-25 07:15:00,
2013-07-25 02:20:00,66.1,63.1,29.84,SE,134,0.0,0.0,90,0.00,,,0.00,0,Wunderground v.1.15,2013-07-25 07:20:00,
2013-07-25 02:25:00,66.0,63.0,29.84,SE,134,0.0,0.0,90,0.00,,,0.00,0,Wunderground v.1.15,2013-07-25 07:25:00,
2013-07-25 02:30:00,66.0,63.0,29.83,SE,134,2.0,3.0,90,0.00,,,0.00,0,Wunderground v.1.15,2013-07-25 07:30:00,
2013-07-25 02:35:00,66.0,63.0,29.83,SE,134,1.0,3.0,90,0.00,,,0.00,0,Wunderground v.1.15,2013-07-25 07:35:00,
2013-07-25 02:40:00,66.0,63.0,29.83,SE,134,3.0,4.0,90,0.00,,,0.00,0,Wunderground v.1.15,2013-07-25 07:40:00,
2013-07-25 02:45:00,65.9,62.9,29.83,SE,134,3.0,4.0,90,0.00,,,0.00,0,Wunderground v.1.15,2013-07-25 07:45:00,
2013-07-25 02:50:00,66.1,63.1,29.83,SE,134,4.0,4.0,90,0.00,,,0.00,0,Wunderground v.1.15,2013-07-25 07:50:00,
2013-07-25 02:55:00,66.2,63.2,29.83,SE,134,0.0,4.0,90,0.00,,,0.00,0,Wunderground v.1.15,2013-07-25 07:55:00,
2013-07-25 03:00:00,66.2,63.2,29.83,SE,134,0.0,2.0,90,0.00,,,0.00,0,Wunderground v.1.15,2013-07-25 08:00:00,
2013-07-25 03:05:00,65.9,62.9,29.83,SE,134,1.0,2.0,90,0.00,,,0.00,0,Wunderground v.1.15,2013-07-25 08:05:00,
2013-07-25 03:10:00,65.9,62.9,29.83,SE,134,2.0,2.0,90,0.00,,,0.00,0,Wunderground v.1.15,2013-07-25 08:10:00,
2013-07-25 03:15:00,65.6,62.6,29.83,SE,134,2.0,3.0,90,0.00,,,0.00,0,Wunderground v.1.15,2013-07-25 08:15:00,
2013-07-25 03:20:00,65.6,62.6,29.83,SE,134,2.0,2.0,90,0.00,,,0.00,0,Wunderground v.1.15,2013-07-25 08:20:00,
2013-07-25 03:25:00,65.8,62.8,29.83,SE,134,1.0,3.0,90,0.00,,,0.00,0,Wunderground v.1.15,2013-07-25 08:25:00,
2013-07-25 03:30:00,65.6,62.6,29.82,SE,134,3.0,3.0,90,0.00,,,0.00,0,Wunderground v.1.15,2013-07-25 08:30:00,
2013-07-25 03:35:00,65.6,62.6,29.82,SE,134,2.0,4.0,90,0.00,,,0.00,0,Wunderground v.1.15,2013-07-25 08:35:00,
2013-07-25 03:40:00,65.6,62.6,29.82,SE,134,2.0,4.0,90,0.00,,,0.00,0,Wunderground v.1.15,2013-07-25 08:40:00,
2013-07-25 03:45:00,65.9,62.9,29.82,SE,134,2.0,4.0,90,0.00,,,0.00,0,Wunderground v.1.15,2013-07-25 08:45:00,
2013-07-25 03:50:00,66.1,63.1,29.81,SE,134,3.0,4.0,90,0.00,,,0.00,0,Wunderground v.1.15,2013-07-25 08:50:00,
2013-07-25 03:55:00,66.2,63.5,29.81,SE,134,3.0,4.0,91,0.00,,,0.00,0,Wunderground v.1.15,2013-07-25 08:55:00,
2013-07-25 04:00:00,66.2,63.5,29.81,SE,135,3.0,4.0,91,0.00,,,0.00,0,Wunderground v.1.15,2013-07-25 09:00:00,
2013-07-25 04:05:00,66.1,63.1,29.80,SE,135,2.0,4.0,90,0.00,,,0.00,0,Wunderground v.1.15,2013-07-25 09:05:00,
2013-07-25 04:10:00,66.1,63.1,29.80,SE,134,3.0,4.0,90,0.00,,,0.00,0,Wunderground v.1.15,2013-07-25 09:10:00,
2013-07-25 04:15:00,66.2,63.5,29.79,SE,141,5.0,6.0,91,0.00,,,0.00,0,Wunderground v.1.15,2013-07-25 09:15:00,
2013-07-25 04:20:00,66.3,63.6,29.79,SSE,157,5.0,6.0,91,0.00,,,0.00,0,Wunderground v.1.15,2013-07-25 09:20:00,
2013-07-25 04:25:00,66.4,63.7,29.79,SSE,159,5.0,7.0,91,0.00,,,0.00,0,Wunderground v.1.15,2013-07-25 09:25:00,
2013-07-25 04:30:00,66.5,63.8,29.79,SSE,159,6.0,6.0,91,0.00,,,0.00,0,Wunderground v.1.15,2013-07-25 09:30:00,
2013-07-25 04:35:00,66.6,63.6,29.79,SSE,159,4.0,6.0,90,0.00,,,0.00,0,Wunderground v.1.15,2013-07-25 09:35:00,
2013-07-25 04:40:00,66.8,63.8,29.79,SSE,166,5.0,6.0,90,0.00,,,0.00,0,Wunderground v.1.15,2013-07-25 09:40:00,
2013-07-25 04:45:00,66.9,63.9,29.79,South,182,5.0,7.0,90,0.00,,,0.00,0,Wunderground v.1.15,2013-07-25 09:45:00,
2013-07-25 04:50:00,67.0,64.0,29.79,SSE,167,4.0,6.0,90,0.00,,,0.00,0,Wunderground v.1.15,2013-07-25 09:50:00,
2013-07-25 04:55:00,67.0,64.0,29.79,South,172,6.0,9.0,90,0.00,,,0.00,0,Wunderground v.1.15,2013-07-25 09:55:00,
2013-07-25 05:00:00,67.1,64.1,29.80,South,182,6.0,8.0,90,0.00,,,0.00,0,Wunderground v.1.15,2013-07-25 10:00:00,
2013-07-25 05:05:00,67.0,64.0,29.80,South,183,5.0,8.0,90,0.00,,,0.00,0,Wunderground v.1.15,2013-07-25 10:05:00,
2013-07-25 05:10:00,67.0,64.0,29.79,South,180,8.0,9.0,90,0.00,,,0.00,0,Wunderground v.1.15,2013-07-25 10:10:00,
2013-07-25 05:15:00,67.0,64.0,29.79,South,172,5.0,10.0,90,0.00,,,0.00,0,Wunderground v.1.15,2013-07-25 10:15:00,
2013-07-25 05:20:00,66.9,63.9,29.79,SSE,167,4.0,6.0,90,0.00,,,0.00,0,Wunderground v.1.15,2013-07-25 10:20:00,
2013-07-25 05:25:00,66.8,63.8,29.79,South,173,5.0,8.0,90,0.00,,,0.00,0,Wunderground v.1.15,2013-07-25 10:25:00,
2013-07-25 05:30:00,66.8,63.8,29.79,South,170,6.0,8.0,90,0.00,,,0.00,0,Wunderground v.1.15,2013-07-25 10:30:00,
2013-07-25 05:35:00,66.7,63.7,29.79,South,182,6.0,8.0,90,0.00,,,0.00,0,Wunderground v.1.15,2013-07-25 10:35:00,
2013-07-25 05:40:00,66.6,63.6,29.79,South,183,5.0,6.0,90,0.00,,,0.00,0,Wunderground v.1.15,2013-07-25 10:40:00,
2013-07-25 05:45:00,66.5,63.5,29.79,South,183,4.0,6.0,90,0.00,,,0.00,0,Wunderground v.1.15,2013-07-25 10:45:00,
2013-07-25 05:50:00,66.3,63.3,29.79,South,179,7.0,8.0,90,0.00,,,0.00,0,Wunderground v.1.15,2013-07-25 10:50:00,
2013-07-25 05:55:00,66.2,63.2,29.79,South,180,5.0,8.0,90,0.00,,,0.00,0,Wunderground v.1.15,2013-07-25 10:55:00,
2013-07-25 06:01:00,66.2,63.2,29.79,South,178,5.0,6.0,90,0.00,,,0.00,0,Wunderground v.1.15,2013-07-25 11:01:00,
2013-07-25 06:06:00,66.1,63.1,29.79,South,180,3.0,6.0,90,0.00,,,0.00,0,Wunderground v.1.15,2013-07-25 11:06:00,
2013-07-25 06:11:00,66.0,63.0,29.79,South,184,3.0,7.0,90,0.00,,,0.00,0,Wunderground v.1.15,2013-07-25 11:11:00,
2013-07-25 06:16:00,66.0,63.0,29.79,SSW,203,7.0,8.0,90,0.00,,,0.00,0,Wunderground v.1.15,2013-07-25 11:16:00,
2013-07-25 06:21:00,65.7,62.7,29.79,SSW,198,6.0,6.0,90,0.00,,,0.00,5,Wunderground v.1.15,2013-07-25 11:21:00,
2013-07-25 06:26:00,65.6,62.6,29.79,SSW,198,4.0,7.0,90,0.00,,,0.00,9,Wunderground v.1.15,2013-07-25 11:26:00,
2013-07-25 06:31:00,65.6,62.6,29.79,South,183,5.0,7.0,90,0.00,,,0.00,14,Wunderground v.1.15,2013-07-25 11:31:00,
2013-07-25 06:36:00,65.7,62.7,29.79,SSW,194,7.0,9.0,90,0.00,,,0.00,21,Wunderground v.1.15,2013-07-25 11:36:00,
2013-07-25 06:41:00,65.7,62.7,29.79,SSW,198,6.0,6.0,90,0.00,,,0.00,25,Wunderground v.1.15,2013-07-25 11:41:00,
2013-07-25 06:46:00,65.7,62.7,29.79,SSW,198,4.0,7.0,90,0.00,,,0.00,30,Wunderground v.1.15,2013-07-25 11:46:00,
2013-07-25 06:51:00,65.8,62.8,29.79,SSW,192,4.0,6.0,90,0.00,,,0.00,39,Wunderground v.1.15,2013-07-25 11:51:00,
2013-07-25 06:56:00,65.8,62.8,29.80,South,191,4.0,6.0,90,0.00,,,0.00,46,Wunderground v.1.15,2013-07-25 11:56:00,
2013-07-25 07:01:00,65.9,62.9,29.80,SSW,192,4.0,5.0,90,0.00,,,0.00,69,Wunderground v.1.15,2013-07-25 12:01:00,
2013-07-25 07:06:00,65.9,62.9,29.79,SSW,192,3.0,5.0,90,0.00,,,0.00,83,Wunderground v.1.15,2013-07-25 12:06:00,
2013-07-25 07:11:00,66.1,63.1,29.80,SSW,192,2.0,3.0,90,0.00,,,0.00,102,Wunderground v.1.15,2013-07-25 12:11:00,
2013-07-25 07:16:00,66.3,63.3,29.80,SSW,192,3.0,4.0,90,0.00,,,0.00,120,Wunderground v.1.15,2013-07-25 12:16:00,
2013-07-25 07:21:00,66.5,63.5,29.80,SSW,192,1.0,2.0,90,0.00,,,0.00,141,Wunderground v.1.15,2013-07-25 12:21:00,
2013-07-25 07:26:00,66.6,63.6,29.80,SSW,192,4.0,4.0,90,0.00,,,0.00,146,Wunderground v.1.15,2013-07-25 12:26:00,
2013-07-25 07:31:00,66.8,63.8,29.80,SSW,192,3.0,5.0,90,0.00,,,0.00,127,Wunderground v.1.15,2013-07-25 12:31:00,
2013-07-25 07:36:00,66.7,63.7,29.80,SSW,192,4.0,7.0,90,0.00,,,0.00,70,Wunderground v.1.15,2013-07-25 12:36:00,
2013-07-25 07:41:00,66.8,63.8,29.80,SSW,192,4.0,5.0,90,0.00,,,0.00,74,Wunderground v.1.15,2013-07-25 12:41:00,
2013-07-25 07:47:00,66.8,63.8,29.80,SSW,192,2.0,4.0,90,0.00,,,0.00,88,Wunderground v.1.15,2013-07-25 12:47:00,
2013-07-25 07:52:00,67.0,64.0,29.80,SSW,192,3.0,6.0,90,0.00,,,0.00,97,Wunderground v.1.15,2013-07-25 12:52:00,
2013-07-25 07:57:00,67.2,64.2,29.80,SSW,193,5.0,6.0,90,0.00,,,0.00,104,Wunderground v.1.15,2013-07-25 12:57:00,
2013-07-25 08:02:00,67.4,64.4,29.81,SSW,194,6.0,7.0,90,0.00,,,0.00,114,Wunderground v.1.15,2013-07-25 13:02:00,
2013-07-25 08:07:00,67.4,64.4,29.80,SSW,198,6.0,7.0,90,0.00,,,0.00,125,Wunderground v.1.15,2013-07-25 13:07:00,
2013-07-25 08:12:00,67.6,64.6,29.81,SSW,201,4.0,8.0,90,0.00,,,0.00,139,Wunderground v.1.15,2013-07-25 13:12:00,
2013-07-25 08:17:00,67.8,64.8,29.81,SW,220,3.0,8.0,90,0.00,,,0.00,148,Wunderground v.1.15,2013-07-25 13:17:00,
2013-07-25 08:22:00,67.9,64.9,29.81,SW,227,7.0,9.0,90,0.00,,,0.00,148,Wunderground v.1.15,2013-07-25 13:22:00,
2013-07-25 08:27:00,68.1,65.1,29.80,SW,220,3.0,9.0,90,0.00,,,0.00,162,Wunderground v.1.15,2013-07-25 13:27:00,
2013-07-25 08:32:00,68.3,65.3,29.80,SW,220,3.0,4.0,90,0.00,,,0.00,185,Wunderground v.1.15,2013-07-25 13:32:00,
2013-07-25 08:38:00,68.5,65.4,29.80,SW,220,2.0,4.0,90,0.00,,,0.00,193,Wunderground v.1.15,2013-07-25 13:38:00,
2013-07-25 08:43:00,68.7,65.6,29.80,SW,221,3.0,7.0,90,0.00,,,0.00,190,Wunderground v.1.15,2013-07-25 13:43:00,
2013-07-25 08:48:00,68.9,65.8,29.81,SSW,212,4.0,7.0,90,0.00,,,0.00,176,Wunderground v.1.15,2013-07-25 13:48:00,
2013-07-25 08:53:00,69.2,65.8,29.81,SSW,213,6.0,9.0,89,0.00,,,0.00,350,Wunderground v.1.15,2013-07-25 13:53:00,
2013-07-25 08:58:00,69.9,66.5,29.81,SW,222,6.0,10.0,89,0.00,,,0.00,413,Wunderground v.1.15,2013-07-25 13:58:00,
2013-07-25 09:03:00,70.3,66.6,29.81,SW,217,5.0,8.0,88,0.00,,,0.00,422,Wunderground v.1.15,2013-07-25 14:03:00,
2013-07-25 09:08:00,70.9,66.5,29.81,SW,231,4.0,11.0,86,0.00,,,0.00,439,Wunderground v.1.15,2013-07-25 14:08:00,
2013-07-25 09:13:00,71.6,66.8,29.81,SW,225,3.0,11.0,85,0.00,,,0.00,454,Wunderground v.1.15,2013-07-25 14:13:00,
2013-07-25 09:18:00,72.2,67.1,29.81,WSW,238,2.0,11.0,84,0.00,,,0.00,476,Wunderground v.1.15,2013-07-25 14:18:00,
2013-07-25 09:23:00,72.9,67.1,29.81,SW,236,6.0,10.0,82,0.00,,,0.00,499,Wunderground v.1.15,2013-07-25 14:23:00,
2013-07-25 09:28:00,73.3,66.4,29.81,West,266,8.0,10.0,79,0.00,,,0.00,420,Wunderground v.1.15,2013-07-25 14:28:00,
2013-07-25 09:33:00,74.0,67.4,29.81,West,265,4.0,6.0,80,0.00,,,0.00,515,Wunderground v.1.15,2013-07-25 14:33:00,
2013-07-25 09:38:00,74.4,66.7,29.80,West,265,4.0,6.0,77,0.00,,,0.00,306,Wunderground v.1.15,2013-07-25 14:38:00,
2013-07-25 09:43:00,74.5,66.4,29.81,SW,236,3.0,5.0,76,0.00,,,0.00,547,Wunderground v.1.15,2013-07-25 14:43:00,
2013-07-25 09:48:00,75.1,66.6,29.81,WSW,250,3.0,7.0,75,0.00,,,0.00,559,Wunderground v.1.15,2013-07-25 14:48:00,
2013-07-25 09:53:00,75.6,66.7,29.81,WSW,256,5.0,7.0,74,0.00,,,0.00,577,Wunderground v.1.15,2013-07-25 14:53:00,
2013-07-25 09:58:00,76.1,66.8,29.81,WSW,238,1.0,7.0,73,0.00,,,0.00,584,Wunderground v.1.15,2013-07-25 14:58:00,
2013-07-25 10:03:00,76.6,66.1,29.81,WSW,253,4.0,10.0,70,0.00,,,0.00,598,Wunderground v.1.15,2013-07-25 15:03:00,
2013-07-25 10:08:00,77.0,65.6,29.81,WSW,252,3.0,10.0,68,0.00,,,0.00,622,Wunderground v.1.15,2013-07-25 15:08:00,
2013-07-25 10:13:00,77.5,66.1,29.80,West,270,2.0,5.0,68,0.00,,,0.00,675,Wunderground v.1.15,2013-07-25 15:13:00,
2013-07-25 10:18:00,78.3,66.4,29.80,West,275,5.0,8.0,67,0.00,,,0.00,800,Wunderground v.1.15,2013-07-25 15:18:00,
2013-07-25 10:23:00,78.3,65.6,29.81,WSW,246,3.0,7.0,65,0.00,,,0.00,269,Wunderground v.1.15,2013-07-25 15:23:00,
2013-07-25 10:28:00,78.2,65.9,29.81,WNW,292,5.0,8.0,66,0.00,,,0.00,712,Wunderground v.1.15,2013-07-25 15:28:00,
2013-07-25 10:33:00,78.2,64.6,29.81,WNW,299,3.0,6.0,63,0.00,,,0.00,703,Wunderground v.1.15,2013-07-25 15:33:00,
2013-07-25 10:38:00,78.5,65.8,29.81,WNW,302,4.0,6.0,65,0.00,,,0.00,715,Wunderground v.1.15,2013-07-25 15:38:00,
2013-07-25 10:43:00,79.0,65.8,29.81,NW,304,3.0,6.0,64,0.00,,,0.00,761,Wunderground v.1.15,2013-07-25 15:43:00,
2013-07-25 10:48:00,79.1,65.0,29.81,NW,325,7.0,9.0,62,0.00,,,0.00,668,Wunderground v.1.15,2013-07-25 15:48:00,
2013-07-25 10:53:00,78.9,65.2,29.81,WNW,301,5.0,7.0,63,0.00,,,0.00,519,Wunderground v.1.15,2013-07-25 15:53:00,
2013-07-25 10:58:00,78.8,64.7,29.81,NNW,334,4.0,9.0,62,0.00,,,0.00,856,Wunderground v.1.15,2013-07-25 15:58:00,
2013-07-25 11:03:00,79.3,65.1,29.81,WNW,300,6.0,10.0,62,0.00,,,0.00,967,Wunderground v.1.15,2013-07-25 16:03:00,
2013-07-25 11:08:00,79.7,65.1,29.80,WNW,292,3.0,10.0,61,0.00,,,0.00,515,Wunderground v.1.15,2013-07-25 16:08:00,
2013-07-25 11:13:00,79.9,65.2,29.81,NNW,335,5.0,7.0,61,0.00,,,0.00,406,Wunderground v.1.15,2013-07-25 16:13:00,
2013-07-25 11:18:00,79.4,65.2,29.80,NNW,333,6.0,8.0,62,0.00,,,0.00,480,Wunderground v.1.15,2013-07-25 16:18:00,
2013-07-25 11:23:00,79.1,65.4,29.80,NNW,333,3.0,4.0,63,0.00,,,0.00,803,Wunderground v.1.15,2013-07-25 16:23:00,
2013-07-25 11:28:00,79.7,65.5,29.80,NW,315,4.0,6.0,62,0.00,,,0.00,872,Wunderground v.1.15,2013-07-25 16:28:00,
2013-07-25 11:33:00,80.2,64.6,29.80,NW,310,4.0,6.0,59,0.00,,,0.00,882,Wunderground v.1.15,2013-07-25 16:33:00,
2013-07-25 11:38:00,80.3,64.7,29.80,NNW,339,7.0,11.0,59,0.00,,,0.00,854,Wunderground v.1.15,2013-07-25 16:38:00,
2013-07-25 11:43:00,80.8,65.1,29.80,North,351,5.0,7.0,59,0.00,,,0.00,851,Wunderground v.1.15,2013-07-25 16:43:00,
2013-07-25 11:48:00,81.2,65.0,29.80,NW,314,3.0,7.0,58,0.00,,,0.00,861,Wunderground v.1.15,2013-07-25 16:48:00,
2013-07-25 13:22:00,83.7,65.8,29.78,WNW,302,6.0,6.0,55,0.00,,,0.00,962,Wunderground v.1.15,2013-07-25 18:22:00,
2013-07-25 13:27:00,83.7,64.2,29.78,WNW,302,1.0,7.0,52,0.00,,,0.00,1027,Wunderground v.1.15,2013-07-25 18:27:00,
2013-07-25 13:32:00,83.7,64.8,29.77,North,355,8.0,9.0,53,0.00,,,0.00,1044,Wunderground v.1.15,2013-07-25 18:32:00,
2013-07-25 13:38:00,84.0,66.6,29.77,West,279,5.0,11.0,56,0.00,,,0.00,1178,Wunderground v.1.15,2013-07-25 18:38:00,
2013-07-25 13:43:00,84.5,67.1,29.77,West,266,2.0,5.0,56,0.00,,,0.00,816,Wunderground v.1.15,2013-07-25 18:43:00,
2013-07-25 13:48:00,84.7,64.0,29.77,NNW,328,0.0,6.0,50,0.00,,,0.00,1034,Wunderground v.1.15,2013-07-25 18:48:00,
2013-07-25 13:53:00,84.5,63.8,29.77,WNW,296,3.0,6.0,50,0.00,,,0.00,932,Wunderground v.1.15,2013-07-25 18:53:00,
2013-07-25 13:58:00,84.3,64.8,29.77,West,281,4.0,9.0,52,0.00,,,0.00,1027,Wunderground v.1.15,2013-07-25 18:58:00,
2013-07-25 14:03:00,84.4,63.7,29.76,SW,234,2.0,5.0,50,0.00,,,0.00,1035,Wunderground v.1.15,2013-07-25 19:03:00,
2013-07-25 14:08:00,84.4,65.4,29.76,NNW,348,5.0,7.0,53,0.00,,,0.00,1148,Wunderground v.1.15,2013-07-25 19:08:00,
2013-07-25 14:13:00,84.8,64.1,29.76,North,5,4.0,6.0,50,0.00,,,0.00,846,Wunderground v.1.15,2013-07-25 19:13:00,
2013-07-25 14:18:00,84.9,66.4,29.76,North,349,4.0,10.0,54,0.00,,,0.00,533,Wunderground v.1.15,2013-07-25 19:18:00,
2013-07-25 14:23:00,84.5,66.0,29.76,NNW,343,4.0,6.0,54,0.00,,,0.00,575,Wunderground v.1.15,2013-07-25 19:23:00,
2013-07-25 14:28:00,84.6,66.1,29.76,NW,318,2.0,7.0,54,0.00,,,0.00,621,Wunderground v.1.15,2013-07-25 19:28:00,
2013-07-25 14:33:00,85.0,66.0,29.76,NW,318,1.0,4.0,53,0.00,,,0.00,926,Wunderground v.1.15,2013-07-25 19:33:00,
2013-07-25 14:38:00,85.1,66.0,29.76,NW,310,4.0,6.0,53,0.00,,,0.00,538,Wunderground v.1.15,2013-07-25 19:38:00,
2013-07-25 14:43:00,84.8,64.7,29.76,NW,311,3.0,4.0,51,0.00,,,0.00,415,Wunderground v.1.15,2013-07-25 19:43:00,
2013-07-25 14:48:00,84.7,66.2,29.76,NW,311,1.0,5.0,54,0.00,,,0.00,413,Wunderground v.1.15,2013-07-25 19:48:00,
2013-07-25 14:53:00,84.3,65.3,29.76,NW,311,3.0,3.0,53,0.00,,,0.00,390,Wunderground v.1.15,2013-07-25 19:53:00,
2013-07-25 14:58:00,84.3,65.3,29.76,NW,311,0.0,4.0,53,0.00,,,0.00,461,Wunderground v.1.15,2013-07-25 19:58:00,
2013-07-25 15:03:00,84.3,65.8,29.76,NW,311,2.0,6.0,54,0.00,,,0.00,459,Wunderground v.1.15,2013-07-25 20:03:00,
2013-07-25 15:08:00,84.2,66.3,29.76,NW,309,5.0,6.0,55,0.00,,,0.00,557,Wunderground v.1.15,2013-07-25 20:08:00,
2013-07-25 15:13:00,84.6,66.1,29.76,WNW,298,3.0,8.0,54,0.00,,,0.00,1053,Wunderground v.1.15,2013-07-25 20:13:00,
2013-07-25 15:18:00,85.0,66.5,29.76,NW,304,4.0,8.0,54,0.00,,,0.00,1259,Wunderground v.1.15,2013-07-25 20:18:00,
2013-07-25 15:23:00,84.9,65.9,29.76,NW,322,2.0,5.0,53,0.00,,,0.00,374,Wunderground v.1.15,2013-07-25 20:23:00,
2013-07-25 15:28:00,84.5,65.5,29.76,NW,304,1.0,7.0,53,0.00,,,0.00,352,Wunderground v.1.15,2013-07-25 20:28:00,
2013-07-25 15:33:00,84.1,65.7,29.75,NW,306,3.0,6.0,54,0.00,,,0.00,323,Wunderground v.1.15,2013-07-25 20:33:00,
2013-07-25 15:38:00,83.7,66.3,29.75,NW,306,1.0,7.0,56,0.00,,,0.00,462,Wunderground v.1.15,2013-07-25 20:38:00,
2013-07-25 15:43:00,83.6,66.8,29.75,NNW,327,4.0,7.0,57,0.00,,,0.00,1102,Wunderground v.1.15,2013-07-25 20:43:00,
2013-07-25 15:48:00,84.0,65.0,29.75,North,351,6.0,9.0,53,0.00,,,0.00,443,Wunderground v.1.15,2013-07-25 20:48:00,
2013-07-25 15:53:00,83.9,66.5,29.75,North,355,3.0,7.0,56,0.00,,,0.00,388,Wunderground v.1.15,2013-07-25 20:53:00,
2013-07-25 15:58:00,83.8,66.4,29.75,NW,326,6.0,8.0,56,0.00,,,0.00,364,Wunderground v.1.15,2013-07-25 20:58:00,
2013-07-25 16:03:00,83.6,65.7,29.75,WNW,284,4.0,7.0,55,0.00,,,0.00,422,Wunderground v.1.15,2013-07-25 21:03:00,
2013-07-25 16:08:00,83.5,66.2,29.75,NW,310,3.0,7.0,56,0.00,,,0.00,371,Wunderground v.1.15,2013-07-25 21:08:00,
2013-07-25 16:13:00,83.4,64.5,29.74,WNW,292,5.0,9.0,53,0.00,,,0.00,494,Wunderground v.1.15,2013-07-25 21:13:00,
2013-07-25 16:18:00,83.2,63.7,29.74,WNW,294,3.0,10.0,52,0.00,,,0.00,388,Wunderground v.1.15,2013-07-25 21:18:00,
2013-07-25 16:23:00,83.5,64.0,29.74,NW,307,4.0,12.0,52,0.00,,,0.00,510,Wunderground v.1.15,2013-07-25 21:23:00,
2013-07-25 16:28:00,83.9,65.5,29.74,NW,313,5.0,12.0,54,0.00,,,0.00,846,Wunderground v.1.15,2013-07-25 21:28:00,
2013-07-25 16:33:00,84.4,65.4,29.74,North,350,4.0,10.0,53,0.00,,,0.00,352,Wunderground v.1.15,2013-07-25 21:33:00,
2013-07-25 16:38:00,84.6,64.5,29.74,NNW,334,6.0,10.0,51,0.00,,,0.00,947,Wunderground v.1.15,2013-07-25 21:38:00,
2013-07-25 16:43:00,84.7,64.6,29.74,NW,319,9.0,9.0,51,0.00,,,0.00,875,Wunderground v.1.15,2013-07-25 21:43:00,
2013-07-25 16:48:00,85.1,64.9,29.75,NNW,338,4.0,12.0,51,0.00,,,0.00,448,Wunderground v.1.15,2013-07-25 21:48:00,
2013-07-25 16:53:00,84.1,64.0,29.75,NNW,346,4.0,12.0,51,0.00,,,0.00,383,Wunderground v.1.15,2013-07-25 21:53:00,
2013-07-25 16:58:00,83.4,63.9,29.75,North,5,8.0,12.0,52,0.00,,,0.00,364,Wunderground v.1.15,2013-07-25 21:58:00,
2013-07-25 17:03:00,81.7,64.0,29.76,ENE,78,3.0,10.0,55,0.00,,,0.00,406,Wunderground v.1.15,2013-07-25 22:03:00,
2013-07-25 17:08:00,79.2,64.6,29.76,ENE,74,3.0,10.0,61,0.00,,,0.00,308,Wunderground v.1.15,2013-07-25 22:08:00,
2013-07-25 17:13:00,78.2,64.6,29.75,NE,55,0.0,7.0,63,0.00,,,0.00,285,Wunderground v.1.15,2013-07-25 22:13:00,
2013-07-25 17:18:00,78.0,65.3,29.75,East,89,5.0,9.0,65,0.00,,,0.00,299,Wunderground v.1.15,2013-07-25 22:18:00,
2013-07-25 17:24:00,77.7,65.4,29.75,ESE,102,2.0,5.0,66,0.00,,,0.00,271,Wunderground v.1.15,2013-07-25 22:24:00,
2013-07-25 17:29:00,77.6,64.9,29.75,ESE,102,2.0,5.0,65,0.00,,,0.00,262,Wunderground v.1.15,2013-07-25 22:29:00,
2013-07-25 17:34:00,77.3,65.1,29.75,East,97,5.0,7.0,66,0.00,,,0.00,158,Wunderground v.1.15,2013-07-25 22:34:00,
2013-07-25 17:39:00,77.1,66.1,29.75,ESE,107,1.0,7.0,69,0.00,,,0.00,139,Wunderground v.1.15,2013-07-25 22:39:00,
2013-07-25 17:44:00,77.2,66.7,29.76,ESE,106,2.0,4.0,70,0.00,,,0.00,88,Wunderground v.1.15,2013-07-25 22:44:00,
2013-07-25 17:49:00,77.4,66.0,29.76,East,96,2.0,5.0,68,0.00,,,0.00,86,Wunderground v.1.15,2013-07-25 22:49:00,
2013-07-25 17:54:00,77.7,65.0,29.76,NE,52,0.0,5.0,65,0.00,,,0.00,90,Wunderground v.1.15,2013-07-25 22:54:00,
2013-07-25 17:59:00,78.1,66.7,29.77,NE,53,5.0,5.0,68,0.00,,,0.00,128,Wunderground v.1.15,2013-07-25 22:59:00,
2013-07-25 18:04:00,77.7,66.7,29.77,ENE,63,4.0,11.0,69,0.00,,,0.00,218,Wunderground v.1.15,2013-07-25 23:04:00,
2013-07-25 18:09:00,76.8,65.9,29.77,NE,56,6.0,11.0,69,0.00,,,0.00,272,Wunderground v.1.15,2013-07-25 23:09:00,
2013-07-25 18:14:00,76.1,66.0,29.78,NE,39,5.0,12.0,71,0.00,,,0.00,211,Wunderground v.1.15,2013-07-25 23:14:00,
2013-07-25 18:19:00,75.8,65.3,29.78,NE,44,6.0,12.0,70,0.00,,,0.00,204,Wunderground v.1.15,2013-07-25 23:19:00,
2013-07-25 18:24:00,75.7,64.8,29.78,NNE,28,6.0,11.0,69,0.00,,,0.00,192,Wunderground v.1.15,2013-07-25 23:24:00,
2013-07-25 18:29:00,75.7,65.2,29.78,NE,43,8.0,13.0,70,0.00,,,0.00,294,Wunderground v.1.15,2013-07-25 23:29:00,
2013-07-25 18:34:00,76.0,66.7,29.77,NE,40,6.0,12.0,73,0.00,,,0.00,207,Wunderground v.1.15,2013-07-25 23:34:00,
2013-07-25 18:39:00,76.5,67.6,29.77,NE,48,9.0,13.0,74,0.00,,,0.00,432,Wunderground v.1.15,2013-07-25 23:39:00,
2013-07-25 18:44:00,76.7,67.4,29.77,NNE,17,10.0,17.0,73,0.00,,,0.00,396,Wunderground v.1.15,2013-07-25 23:44:00,
2013-07-25 18:49:00,76.6,66.9,29.77,NNE,12,9.0,17.0,72,0.00,,,0.00,364,Wunderground v.1.15,2013-07-25 23:49:00,
2013-07-25 18:54:00,76.3,67.0,29.77,NE,38,9.0,16.0,73,0.00,,,0.00,325,Wunderground v.1.15,2013-07-25 23:54:00,
2013-07-25 18:59:00,76.0,66.3,29.77,NE,43,10.0,16.0,72,0.00,,,0.00,318,Wunderground v.1.15,2013-07-25 23:59:00,
2013-07-25 19:04:00,75.6,65.9,29.77,NE,41,9.0,15.0,72,0.00,,,0.00,327,Wunderground v.1.15,2013-07-26 00:04:00,
2013-07-25 19:09:00,75.3,65.6,29.78,NE,42,9.0,15.0,72,0.00,,,0.00,169,Wunderground v.1.15,2013-07-26 00:09:00,
2013-07-25 19:14:00,74.9,65.3,29.78,NNE,15,8.0,11.0,72,0.00,,,0.00,107,Wunderground v.1.15,2013-07-26 00:14:00,
2013-07-25 19:19:00,74.6,65.4,29.78,NE,37,4.0,11.0,73,0.00,,,0.00,90,Wunderground v.1.15,2013-07-26 00:19:00,
2013-07-25 19:24:00,74.3,65.5,29.79,NNE,26,3.0,7.0,74,0.00,,,0.00,84,Wunderground v.1.15,2013-07-26 00:24:00,
2013-07-25 19:29:00,74.2,65.8,29.79,NE,34,6.0,8.0,75,0.00,,,0.00,40,Wunderground v.1.15,2013-07-26 00:29:00,
2013-07-25 19:34:00,74.0,65.2,29.79,NNE,21,4.0,7.0,74,0.00,,,0.00,39,Wunderground v.1.15,2013-07-26 00:34:00,
2013-07-25 19:39:00,73.6,64.4,29.79,North,5,5.0,7.0,73,0.00,,,0.00,56,Wunderground v.1.15,2013-07-26 00:39:00,
2013-07-25 19:44:00,73.4,64.6,29.79,North,355,4.0,6.0,74,0.00,,,0.00,74,Wunderground v.1.15,2013-07-26 00:44:00,
2013-07-25 19:49:00,73.3,64.5,29.79,North,355,0.0,6.0,74,0.00,,,0.00,53,Wunderground v.1.15,2013-07-26 00:49:00,
2013-07-25 19:54:00,73.2,64.4,29.80,North,355,2.0,4.0,74,0.00,,,0.00,65,Wunderground v.1.15,2013-07-26 00:54:00,
2013-07-25 19:59:00,73.2,64.4,29.80,North,355,2.0,4.0,74,0.00,,,0.00,104,Wunderground v.1.15,2013-07-26 00:59:00,
2013-07-25 20:04:00,73.3,64.9,29.80,North,355,4.0,4.0,75,0.00,,,0.00,81,Wunderground v.1.15,2013-07-26 01:04:00,
2013-07-25 20:09:00,73.3,64.9,29.80,North,355,1.0,6.0,75,0.00,,,0.00,83,Wunderground v.1.15,2013-07-26 01:09:00,
2013-07-25 20:14:00,73.3,64.9,29.79,North,355,2.0,3.0,75,0.00,,,0.00,58,Wunderground v.1.15,2013-07-26 01:14:00,
2013-07-25 20:19:00,73.2,65.2,29.80,North,355,1.0,3.0,76,0.00,,,0.00,44,Wunderground v.1.15,2013-07-26 01:19:00,
2013-07-25 20:24:00,73.1,65.1,29.80,North,355,1.0,3.0,76,0.00,,,0.00,39,Wunderground v.1.15,2013-07-26 01:24:00,
2013-07-25 20:29:00,72.9,64.9,29.79,North,355,1.0,3.0,76,0.00,,,0.00,28,Wunderground v.1.15,2013-07-26 01:29:00,
2013-07-25 20:34:00,72.6,65.0,29.79,North,355,2.0,3.0,77,0.00,,,0.00,23,Wunderground v.1.15,2013-07-26 01:34:00,
2013-07-25 20:39:00,72.4,64.8,29.79,North,355,0.0,3.0,77,0.00,,,0.00,16,Wunderground v.1.15,2013-07-26 01:39:00,
2013-07-25 20:44:00,72.1,64.5,29.80,North,355,0.0,2.0,77,0.00,,,0.00,11,Wunderground v.1.15,2013-07-26 01:44:00,
2013-07-25 20:49:00,71.9,65.0,29.80,North,355,1.0,2.0,79,0.00,,,0.00,12,Wunderground v.1.15,2013-07-26 01:49:00,
2013-07-25 20:54:00,71.7,65.2,29.80,North,355,0.0,0.0,80,0.00,,,0.00,11,Wunderground v.1.15,2013-07-26 01:54:00,
2013-07-25 20:59:00,71.4,64.9,29.80,North,355,0.0,2.0,80,0.00,,,0.00,5,Wunderground v.1.15,2013-07-26 01:59:00,
2013-07-25 21:04:00,71.2,64.7,29.80,North,355,0.0,0.0,80,0.00,,,0.00,0,Wunderground v.1.15,2013-07-26 02:04:00,
2013-07-25 21:09:00,71.2,65.1,29.81,North,355,0.0,0.0,81,0.00,,,0.00,0,Wunderground v.1.15,2013-07-26 02:09:00,
2013-07-25 21:14:00,71.1,64.6,29.81,North,355,0.0,0.0,80,0.00,,,0.00,0,Wunderground v.1.15,2013-07-26 02:14:00,
2013-07-25 21:19:00,71.1,65.0,29.81,North,355,0.0,0.0,81,0.00,,,0.00,0,Wunderground v.1.15,2013-07-26 02:19:00,
2013-07-25 21:24:00,71.1,65.3,29.81,North,355,0.0,0.0,82,0.00,,,0.00,0,Wunderground v.1.15,2013-07-26 02:24:00,
2013-07-25 21:29:00,70.8,65.4,29.81,North,355,0.0,0.0,83,0.00,,,0.00,0,Wunderground v.1.15,2013-07-26 02:29:00,
2013-07-25 21:34:00,70.0,64.9,29.81,North,355,0.0,0.0,84,0.00,,,0.00,0,Wunderground v.1.15,2013-07-26 02:34:00,
2013-07-25 21:39:00,69.4,64.4,29.81,North,355,0.0,0.0,84,0.00,,,0.00,0,Wunderground v.1.15,2013-07-26 02:39:00,
2013-07-25 21:44:00,69.1,64.4,29.81,North,355,0.0,0.0,85,0.00,,,0.00,0,Wunderground v.1.15,2013-07-26 02:44:00,
2013-07-25 21:49:00,68.8,64.1,29.82,North,355,0.0,2.0,85,0.00,,,0.00,0,Wunderground v.1.15,2013-07-26 02:49:00,
2013-07-25 21:54:00,68.5,64.1,29.82,North,355,0.0,0.0,86,0.00,,,0.00,0,Wunderground v.1.15,2013-07-26 02:54:00,
2013-07-25 21:59:00,68.3,63.9,29.83,North,355,0.0,0.0,86,0.00,,,0.00,0,Wunderground v.1.15,2013-07-26 02:59:00,
2013-07-25 22:04:00,68.1,63.8,29.83,North,355,0.0,0.0,86,0.00,,,0.00,0,Wunderground v.1.15,2013-07-26 03:04:00,
2013-07-25 22:09:00,67.8,63.8,29.82,North,355,0.0,0.0,87,0.00,,,0.00,0,Wunderground v.1.15,2013-07-26 03:09:00,
2013-07-25 22:14:00,67.6,63.3,29.83,North,355,0.0,0.0,86,0.00,,,0.00,0,Wunderground v.1.15,2013-07-26 03:14:00,
2013-07-25 22:19:00,67.3,63.3,29.83,North,355,0.0,0.0,87,0.00,,,0.00,0,Wunderground v.1.15,2013-07-26 03:19:00,
2013-07-25 22:24:00,67.1,63.1,29.83,North,355,0.0,0.0,87,0.00,,,0.00,0,Wunderground v.1.15,2013-07-26 03:24:00,
2013-07-25 22:29:00,66.8,62.8,29.83,North,355,0.0,0.0,87,0.00,,,0.00,0,Wunderground v.1.15,2013-07-26 03:29:00,
2013-07-25 22:34:00,66.5,62.5,29.83,North,355,2.0,2.0,87,0.00,,,0.00,0,Wunderground v.1.15,2013-07-26 03:34:00,
2013-07-25 22:39:00,65.9,61.9,29.84,North,355,0.0,2.0,87,0.00,,,0.00,0,Wunderground v.1.15,2013-07-26 03:39:00,
2013-07-25 22:44:00,65.8,62.1,29.84,North,355,0.0,0.0,88,0.00,,,0.00,0,Wunderground v.1.15,2013-07-26 03:44:00,
2013-07-25 22:49:00,65.5,61.9,29.84,North,355,0.0,0.0,88,0.00,,,0.00,0,Wunderground v.1.15,2013-07-26 03:49:00,
2013-07-25 22:54:00,65.2,61.6,29.85,North,355,0.0,0.0,88,0.00,,,0.00,0,Wunderground v.1.15,2013-07-26 03:54:00,
2013-07-25 22:59:00,64.8,61.2,29.84,North,355,0.0,0.0,88,0.00,,,0.00,0,Wunderground v.1.15,2013-07-26 03:59:00,
2013-07-25 23:01:00,64.8,61.2,29.84,North,355,0.0,0.0,88,0.00,,,0.00,0,Wunderground v.1.15,2013-07-26 04:01:00,
2013-07-25 23:06:00,64.5,60.9,29.84,North,355,0.0,0.0,88,0.00,,,0.00,0,Wunderground v.1.15,2013-07-26 04:06:00,
2013-07-25 23:12:00,64.5,61.2,29.84,North,355,0.0,0.0,89,0.00,,,0.00,0,Wunderground v.1.15,2013-07-26 04:12:00,
2013-07-25 23:17:00,64.2,60.6,29.84,North,355,0.0,0.0,88,0.00,,,0.00,0,Wunderground v.1.15,2013-07-26 04:17:00,
2013-07-25 23:22:00,64.1,60.8,29.84,North,355,0.0,0.0,89,0.00,,,0.00,0,Wunderground v.1.15,2013-07-26 04:22:00,
2013-07-25 23:27:00,64.1,60.8,29.84,North,355,0.0,0.0,89,0.00,,,0.00,0,Wunderground v.1.15,2013-07-26 04:27:00,
2013-07-25 23:32:00,63.9,60.6,29.84,North,355,0.0,0.0,89,0.00,,,0.00,0,Wunderground v.1.15,2013-07-26 04:32:00,
2013-07-25 23:37:00,63.8,60.5,29.84,North,355,0.0,0.0,89,0.00,,,0.00,0,Wunderground v.1.15,2013-07-26 04:37:00,
2013-07-25 23:42:00,63.6,60.3,29.84,North,355,0.0,0.0,89,0.00,,,0.00,0,Wunderground v.1.15,2013-07-26 04:42:00,
2013-07-25 23:47:00,63.5,60.2,29.84,North,355,0.0,1.0,89,0.00,,,0.00,0,Wunderground v.1.15,2013-07-26 04:47:00,
2013-07-25 23:52:00,63.1,59.8,29.84,North,355,0.0,0.0,89,0.00,,,0.00,0,Wunderground v.1.15,2013-07-26 04:52:00,
2013-07-25 23:57:00,62.8,59.5,29.84,North,355,0.0,0.0,89,0.00,,,0.00,0,Wunderground v.1.15,2013-07-26 04:57:00,